Theta_e
313 314 312 310 310 311 313 313 313 313 311 311 311 312 312 312 312 313 314 314 313 313 313 315 316 317 317 317 320 321 329 328 326 326 325 331 340 337 336 337 335 336 336 338 343
313 313 314 313 310 310 312 313 313 313 312 311 310 311 311 312 312 314 317 319 316 313 313 315 316 316 317 318 320 322 328 331 324 325 323 323 335 338 338 337 336 336 336 337 339
313 314 314 315 312 310 311 313 313 313 313 312 310 310 310 311 313 321 322 320 320 313 313 313 315 316 318 318 319 320 328 325 323 322 321 324 336 337 338 339 337 336 336 337 336
313 315 315 315 314 311 311 312 313 313 313 312 310 309 310 311 319 325 318 322 319 313 314 314 315 316 318 320 318 322 320 320 320 319 319 322 332 336 337 337 335 334 333 334 335
313 314 315 316 315 312 311 311 313 313 312 311 309 309 309 310 313 316 318 325 317 313 315 316 315 316 318 318 317 319 320 318 319 318 318 318 323 327 333 335 335 333 332 335 335
313 314 314 315 315 312 311 311 313 312 312 312 312 312 311 311 313 317 325 323 316 314 314 316 314 316 317 318 319 318 318 319 320 320 319 320 322 327 326 330 335 335 334 336 335
312 314 313 313 314 312 311 312 313 313 313 313 313 313 312 313 313 321 324 319 317 316 317 317 314 317 318 319 317 317 320 320 320 320 321 319 322 329 328 333 335 336 337 336 338
311 314 312 312 313 312 311 314 313 313 313 313 313 312 313 314 314 316 323 318 314 315 316 316 317 317 319 317 317 320 319 320 321 319 319 320 328 324 325 330 334 337 336 337 337
310 313 311 313 313 311 314 315 316 315 317 315 313 313 314 318 318 314 321 319 314 313 316 314 317 318 317 320 320 318 319 320 320 319 320 321 323 323 320 321 326 334 336 336 334
309 313 311 311 311 315 316 319 318 318 317 316 315 316 317 318 319 317 321 319 317 316 316 317 317 319 318 320 318 318 319 319 320 321 321 321 322 324 322 321 323 327 337 337 336
308 313 311 311 314 316 317 318 319 319 318 319 319 318 319 319 320 319 317 320 319 318 321 316 319 319 320 319 318 318 320 320 320 320 320 322 323 323 323 320 322 323 331 339 339
308 313 313 314 315 317 318 319 318 319 320 319 319 319 320 319 319 320 319 318 319 321 318 320 320 320 316 316 318 319 319 319 320 320 320 322 323 323 324 323 323 325 326 334 339
308 312 315 317 317 318 318 317 318 319 319 318 318 318 319 319 319 319 319 319 321 322 321 322 320 316 318 318 319 319 319 319 320 320 320 321 323 324 324 321 321 324 328 330 337
309 311 317 317 319 318 318 316 318 319 321 324 319 320 319 319 320 319 319 320 321 322 321 322 320 319 319 320 320 322 320 320 320 321 323 321 323 325 325 324 325 327 331 334 338
309 310 314 317 319 318 316 315 319 319 327 324 321 321 320 320 319 317 316 319 320 321 321 322 322 320 321 322 319 322 319 321 321 323 323 324 323 324 323 326 327 327 334 338 340
309 312 314 319 320 318 315 320 320 325 328 322 321 321 320 318 315 314 312 315 312 319 321 321 320 321 322 320 320 321 323 323 321 322 324 324 324 324 325 326 327 326 327 334 339
310 314 316 318 319 316 316 321 325 328 319 318 319 318 317 317 314 313 310 309 312 322 321 321 322 321 320 323 323 322 324 325 325 324 323 324 324 324 326 326 326 327 326 329 336
314 314 315 316 317 319 318 323 327 315 314 313 315 317 316 315 313 308 310 309 307 311 318 321 324 321 316 321 323 324 324 325 326 325 324 323 325 324 325 325 325 323 324 323 327
315 315 316 316 314 315 318 316 311 309 309 312 315 317 314 313 316 309 306 306 304 307 313 315 320 313 318 314 318 323 324 321 325 326 325 325 326 325 325 325 326 326 325 324 328
314 315 314 314 315 318 314 310 308 307 309 312 315 312 311 310 315 311 306 305 304 304 306 308 309 312 311 316 317 315 317 325 325 327 328 326 326 326 329 329 327 328 334 336 328
316 316 312 314 315 312 311 307 306 305 307 308 308 308 305 307 310 308 306 304 304 304 304 304 306 310 309 310 308 310 315 317 321 324 328 329 327 327 323 322 323 322 325 336 336
315 313 310 313 309 305 307 306 305 305 305 305 305 306 305 306 308 305 305 305 304 304 303 304 304 305 303 305 311 311 309 309 315 320 315 323 326 319 317 317 319 319 321 326 339
307 306 307 311 308 306 305 305 305 305 305 305 305 305 305 305 305 305 305 304 304 304 305 304 302 303 303 310 306 305 304 305 306 307 314 320 325 321 315 314 312 316 320 324 330
306 307 305 304 303 306 306 305 306 305 305 305 305 304 305 306 305 305 305 304 303 304 304 304 304 303 303 303 304 305 305 306 306 306 307 309 310 310 310 309 311 314 319 323 326
304 302 300 305 305 305 305 305 306 306 305 304 305 305 305 306 305 305 305 304 303 303 303 304 305 304 305 305 306 306 306 306 306 306 307 307 307 307 307 308 311 318 320 322 325
304 304 303 302 304 305 305 306 306 305 305 305 305 305 305 305 305 304 304 304 304 304 304 302 306 305 306 306 306 306 306 306 306 306 307 307 308 309 311 312 315 317 317 319 320
303 304 304 303 304 305 305 305 305 305 304 304 304 304 304 304 303 303 303 303 303 304 305 305 306 306 306 307 307 307 309 308 309 308 308 309 310 309 311 311 311 311 313 315 317
Wind_Speed
12 10 9 8 7 7 6 6 7 7 7 7 7 7 7 8 9 11 12 8 8 16 9 11 9 8 8 6 5 4 3 2 2 2 6 3 6 5 6 5 4 5 2 5 20
13 11 9 8 7 7 6 6 6 7 6 7 7 7 7 8 11 12 3 5 9 12 17 14 9 8 5 6 5 4 4 3 2 2 5 7 4 5 6 8 7 6 6 11 21
15 11 9 8 7 6 6 6 6 6 6 6 6 6 6 7 10 4 3 2 7 11 11 16 10 9 5 5 5 5 8 4 3 5 2 2 3 5 6 8 9 13 14 20 24
16 11 9 7 6 6 6 6 5 5 5 5 5 5 5 5 1 5 2 3 6 14 12 12 10 6 5 6 4 5 6 4 2 4 1 3 1 4 10 6 7 11 16 25 28
16 12 9 7 6 5 5 5 4 3 4 4 5 5 5 5 7 4 3 1 6 15 12 10 9 6 5 4 6 5 3 4 5 6 8 8 9 8 13 10 5 13 19 28 30
16 12 9 7 5 4 4 4 3 3 3 3 5 5 5 4 5 3 3 3 6 10 12 9 4 5 4 3 6 3 4 3 6 5 6 6 2 3 10 12 12 12 20 28 32
16 12 10 6 4 3 3 3 3 2 2 4 5 4 8 10 4 3 4 5 5 7 7 7 5 3 4 3 1 1 3 3 7 5 6 8 4 7 6 7 13 18 20 24 33
16 12 10 5 2 1 1 2 2 1 2 3 3 4 6 3 4 9 6 2 6 7 6 7 8 1 0 2 2 2 1 8 6 5 2 9 16 11 8 7 10 16 18 25 30
15 12 9 4 2 4 3 1 0 1 2 3 3 3 5 3 2 10 9 3 7 9 11 11 4 2 2 2 2 2 5 4 4 1 2 8 8 7 5 9 10 18 23 25 28
13 10 8 4 6 6 5 4 3 2 3 4 6 3 2 1 6 5 12 6 6 9 5 2 3 2 2 3 6 3 3 3 6 3 2 3 10 13 13 9 15 17 25 26 27
12 8 5 4 7 7 6 2 5 2 5 6 8 9 11 4 3 3 13 12 6 4 2 2 4 5 6 4 2 2 4 9 8 9 7 14 12 13 13 13 17 17 23 28 32
10 5 3 5 7 8 10 5 6 6 7 9 10 17 16 6 4 1 10 9 5 4 4 3 6 7 2 6 5 5 7 11 9 6 5 11 15 15 13 11 13 20 23 30 37
8 2 3 4 5 5 5 8 11 7 3 5 5 3 1 11 5 3 11 8 3 5 5 5 1 5 5 4 6 7 11 7 9 5 10 12 13 10 5 8 12 17 21 23 32
6 3 6 3 4 2 1 9 11 4 2 7 3 4 3 1 5 3 7 1 3 5 5 5 3 7 6 8 8 10 9 11 9 4 6 2 8 10 9 8 10 15 17 21 26
5 3 7 7 4 2 6 11 7 1 2 9 6 6 6 5 5 10 16 1 4 1 4 1 3 3 4 3 8 5 2 6 7 8 7 12 7 9 4 7 10 11 16 18 21
1 5 8 7 6 4 8 6 2 1 3 5 6 11 4 16 8 9 10 14 6 3 3 3 4 4 6 3 8 4 10 6 2 4 11 16 12 12 12 11 10 9 13 16 17
7 10 8 7 5 4 5 3 1 1 7 9 6 8 9 12 9 9 16 19 9 6 9 9 2 5 11 10 8 7 7 6 6 8 14 8 8 12 7 13 13 13 16 17 19
14 11 6 3 1 2 0 2 2 3 4 6 6 3 7 12 8 11 6 7 18 9 4 7 1 10 16 7 8 12 6 6 11 10 13 1 9 10 11 15 13 14 16 16 18
12 5 5 3 2 1 4 6 2 2 6 8 3 6 5 6 5 6 10 6 12 13 7 7 4 11 6 15 7 3 5 10 12 15 11 12 16 12 12 14 13 17 21 20 21
8 4 12 4 3 4 8 5 3 6 4 2 4 5 5 9 4 6 4 7 5 12 6 3 7 6 13 11 8 7 10 4 5 9 18 12 11 10 11 17 19 23 27 30 24
5 2 16 2 4 13 5 5 4 10 3 5 3 4 6 4 6 4 4 4 8 8 5 5 2 6 9 8 15 10 3 5 4 5 9 16 11 5 11 15 18 24 29 30 28
2 2 20 3 9 5 4 3 4 8 11 8 6 7 4 7 5 4 3 4 9 7 4 6 2 4 11 13 8 9 7 7 4 6 5 5 8 9 12 17 22 29 32 30 25
8 9 19 5 5 6 13 13 12 7 10 4 6 7 6 4 4 6 3 1 9 5 3 4 1 6 4 5 5 5 12 9 11 11 14 8 7 3 27 28 29 32 33 31 26
6 3 15 24 17 13 10 6 6 9 13 10 5 7 3 5 5 5 4 2 8 4 8 1 1 3 4 10 12 18 20 18 11 7 14 23 28 25 28 31 40 38 32 29 26
7 5 4 4 12 16 9 5 8 4 6 12 4 6 3 3 3 3 4 6 6 6 4 2 2 3 13 16 13 16 18 19 19 17 17 28 29 26 27 27 35 35 32 28 26
8 8 17 8 9 15 9 5 7 5 5 4 3 4 2 3 3 2 3 2 2 5 3 1 3 7 11 9 9 17 15 13 15 17 19 25 28 21 30 30 32 31 33 29 28
27 19 10 9 6 6 4 3 2 6 5 6 2 1 2 1 4 7 7 6 6 3 1 1 5 9 5 13 16 3 5 6 10 17 21 22 27 24 19 23 27 34 38 31 29
Wind_Direction
341 330 316 310 307 299 289 280 270 263 260 261 265 273 281 291 291 288 281 262 236 222 220 210 210 202 205 187 161 148 227 225 206 273 7 19 210 169 156 153 191 201 243 210 179
345 331 317 307 302 298 294 279 270 266 264 261 261 265 278 291 297 295 244 237 229 213 212 205 207 191 177 170 168 187 233 223 199 238 357 324 258 203 182 175 207 187 208 172 178
352 341 326 310 300 292 287 275 271 267 268 267 266 271 288 306 315 143 114 325 232 206 202 210 205 183 172 169 177 171 235 193 225 252 272 300 230 201 223 214 216 204 187 179 182
354 348 338 319 304 294 288 273 266 257 258 266 269 273 283 286 235 172 320 319 221 191 180 178 184 164 175 183 176 206 239 197 162 193 241 276 240 241 229 238 289 231 199 190 188
353 348 343 326 310 303 290 271 262 256 256 264 266 261 263 259 252 236 288 185 171 188 190 182 178 159 190 171 160 220 215 207 251 256 262 275 256 264 248 204 235 189 195 197 198
352 347 342 327 315 296 281 252 250 246 253 261 260 260 252 248 227 259 154 132 174 193 194 191 200 171 134 174 207 207 200 275 278 245 240 246 303 203 262 201 210 201 202 203 204
351 348 342 329 311 283 261 217 222 238 255 259 259 264 265 254 207 175 156 157 181 191 201 200 152 158 139 155 281 94 263 273 233 244 236 188 242 225 230 165 203 208 205 206 211
350 348 347 338 315 272 183 179 209 242 270 279 283 282 257 267 224 213 191 157 182 189 180 175 170 60 121 124 60 171 217 240 216 203 221 200 252 235 224 190 213 220 211 209 212
350 349 354 5 78 111 119 112 283 270 271 272 272 283 279 352 313 196 186 103 135 137 128 128 134 95 123 158 205 43 246 215 261 280 223 217 238 252 337 215 227 230 222 214 219
349 352 5 49 105 109 92 53 7 295 270 283 271 289 231 76 347 182 184 137 127 141 130 126 97 129 106 203 242 247 246 208 242 105 20 256 266 278 286 280 268 235 227 224 221
349 355 21 91 109 89 58 27 3 349 280 253 284 280 293 329 61 136 192 165 120 119 146 89 212 219 220 201 203 251 268 274 267 268 296 277 267 269 276 252 258 234 224 228 229
348 351 56 103 109 97 68 69 22 319 307 315 280 263 253 242 344 110 166 165 166 187 145 186 255 234 153 172 197 211 264 269 288 280 240 273 279 283 277 261 250 241 222 227 232
340 322 145 117 125 117 82 27 354 328 272 318 327 346 357 212 223 226 171 156 149 193 205 232 80 120 181 200 227 239 254 258 275 299 250 272 265 259 241 260 266 257 248 236 235
325 236 188 147 150 120 137 343 337 326 356 12 24 57 66 169 82 23 181 204 180 229 197 256 242 231 227 258 228 272 223 250 265 267 269 320 282 259 264 259 251 259 247 243 231
310 219 188 168 161 132 321 325 315 229 121 343 26 12 74 37 325 31 30 152 63 100 194 186 221 174 215 231 181 272 221 277 277 259 282 254 256 263 239 251 259 249 237 238 232
251 168 168 177 191 288 323 325 122 232 86 9 26 8 46 32 30 347 22 48 40 351 351 305 301 255 281 197 206 291 292 271 246 250 254 258 235 256 243 250 259 254 261 253 240
147 144 150 180 211 294 322 160 154 70 338 353 354 1 66 21 42 39 52 49 32 357 20 333 299 7 17 298 258 252 274 283 262 238 262 284 251 250 254 249 250 266 273 260 248
147 127 129 158 199 315 358 98 95 18 359 347 348 59 65 13 41 30 57 50 31 19 14 359 221 13 353 8 310 295 249 258 271 272 286 348 259 258 223 254 263 260 266 266 256
146 131 62 66 30 325 134 61 64 346 326 325 333 45 47 27 45 73 52 49 29 15 24 350 264 331 9 334 306 23 242 338 281 270 276 260 264 261 247 245 267 316 314 285 257
158 133 26 33 38 146 75 102 104 356 327 322 70 15 52 10 57 64 62 22 14 9 354 71 291 23 322 325 57 18 335 285 235 270 260 250 261 267 22 7 3 1 346 329 312
196 197 358 130 113 62 82 86 96 28 101 34 68 73 63 20 47 62 54 75 24 1 40 25 240 331 330 10 333 328 354 347 281 306 279 276 266 90 46 11 359 353 350 343 328
142 58 350 128 53 47 66 90 90 21 47 68 67 64 62 37 66 84 81 66 29 355 25 18 62 309 298 321 58 69 43 33 347 314 294 274 254 142 39 356 349 342 345 346 339
90 40 17 125 107 88 95 84 63 46 32 63 50 53 54 56 107 100 41 64 13 24 27 357 85 312 330 168 86 5 336 324 313 276 261 278 253 215 327 333 339 338 335 335 331
96 60 31 61 84 107 110 62 106 49 48 57 58 55 88 50 41 133 67 67 4 38 77 347 124 3 309 278 281 291 296 296 283 270 285 258 291 300 319 327 325 329 326 324 317
69 69 51 53 55 83 92 79 91 88 65 36 73 47 47 72 85 69 48 357 40 40 24 29 27 324 291 286 280 271 279 283 282 276 268 290 295 306 306 301 306 313 317 317 319
105 116 89 85 77 72 37 38 85 84 29 38 59 354 31 89 44 60 26 13 13 357 52 18 341 314 303 305 301 297 291 275 280 293 287 289 288 311 321 320 322 316 320 315 314
99 113 99 42 60 77 37 76 75 116 77 49 333 112 123 62 317 287 265 256 266 302 347 309 345 331 306 336 310 225 9 9 335 323 305 290 293 309 321 322 313 316 306 302 302